Location: Eaton Estates
(41.3089°N, 82.0057°W)
Time: 14:23:09
(UTC+00:00)

USA 308 - Pass Details

Date: 27 October 2021
Orbit: 565 x 570 km, 54.0° (Epoch: 04 December)

Event Time Altitude Azimuth Distance (km) Brightness Sun altitude
Exits shadow 11:19:00 - 295° (WNW) 2,012 5.1 -7.2°
Reaches altitude 10° 11:19:29 10° 299° (WNW) 1,879 4.9 -7.1°
Maximum altitude 11:22:31 19° 345° (NNW) 1,410 4.7 -6.5°
Drops below altitude 10° 11:25:33 10° 30° (NNE) 1,881 5.8 -6.0°
Sets 11:28:23 0° 49° (NE) 2,779 7.0 -5.5°
